Aérodrome :
LOGIN :

S'inscrire | Disclaimer

   EN    FR    IT 

 










Légende :    VFR   VFR Marginal   IFR   IFR Intensif   IFR Très Intensif
Visi : 
Plafond : 
>= 8 km
>= 3000ft
5 à 8 km
1000 à 3000 ft
1500m à 5 km
500 à 1000 ft
800 à 1500m
200 à 500 ft
< 800m
< 200 ft
Symboles :   Orages  Brouillard  Fortes neiges  Fortes précipitations  Vent > 20 kt
SIGMETs :   Divers  Orages  Givrage  Turbulence  Onde Orograph.  Cendres Volcan.






- Altitude de l'aérodrome : 53 ft
- Code IATA : LBC


EDHL - Lübeck

DERNIER METAR :
  • 301320Z 03010KT 340V070 CAVOK 20/04 Q1025

METARs EXPIRÉS :
  • 301250Z 07010KT 040V100 CAVOK 20/05 Q1026
  • 301220Z 07013KT CAVOK 20/06 Q1026
  • 301150Z 04013KT 010V080 CAVOK 20/06 Q1026
  • 301120Z 03013KT CAVOK 19/07 Q1026
  • 301050Z 05012KT 360V080 CAVOK 19/06 Q1026

TAF TAF EDHL
Valide du 30 à 12h jusqu'au 30 à 21h UTC


301100Z 3012/3021 04010G20KT CAVOK
BECMG 3017/3019 04005KT



MET'MAP, la Météo Aéronautique d'un coup d'oeil ! - Copyright ORBIFLY Décembre 2007 - Disclaimer

ORBIFLY MET'MAP TEAM :

Programmation & Développement : Alexandra Zaïnal
Sur une idée originale de : Baudouin d'Aumeries
Assistance à la programmation : Marc-Olivier Méhu
Soutien technique & logistique : Manuel Goepfert

Contact : metmap@orbifly.com




SOURCES & CREDITS :

   NOAA